World > North America > United States > South Carolina > Lake City  

Lake City, SC Hourly Weather Updates

Feedback E-mail the Weather

Quick Clicks

Lake City, SC Weather Maps

°F °C°F °C
Lake City Weather Map
UTC Time: 4/18/2024, 01:14
Your Time:

Lake City, SC Regional Weather

Expires:202404180200;;927778
ASUS42 KCAE 180110
RWRCAE
REGIONAL WEATHER ROUNDUP
NATIONAL WEATHER SERVICE COLUMBIA SC
900 PM EDT WED APR 17 2024

NOTE: "FAIR" INDICATES FEW OR NO CLOUDS BELOW 12,000 FEET WITH NO
SIGNIFICANT WEATHER AND/OR OBSTRUCTIONS TO VISIBILITY.

NOT ALL STATIONS ARE QUALITY CONTROLLED BY THE NATIONAL 
WEATHER SERVICE. USE DATA WITH CAUTION...ESPECIALLY 
DEWPOINT OBSERVATIONS.


SCZ001>059-115-116-135>137-GAZ040-063>065-077-180200-
...UPSTATE SOUTH CAROLINA...
  
CITY           SKY/WX    TMP DP  RH WIND       PRES   REMARKS
ANDERSON       CLOUDY    69  57  65 NW5       30.06S                  
LIBERTY        CLOUDY    65  57  74 NW3       30.06S                  
SPARTANBURG    CLOUDY    70  52  52 W7        30.04S                  
GREENVILLE     CLOUDY    68  55  63 W12       30.05F                  
GREENWOOD      CLOUDY    72  60  66 W5        30.06R                  
GREER          CLOUDY    69  52  54 W9        30.05F                  
ROCK HILL      CLOUDY    70  60  70 SW7       30.04R                  
CHESTER        CLOUDY    70  61  73 CALM      30.06R                  
LAURENS        CLOUDY    72  61  68 W6        30.05R                  


...CENTRAL SOUTH CAROLINA...
  
CITY           SKY/WX    TMP DP  RH WIND       PRES   REMARKS
COLUMBIA APT   CLOUDY    75  58  55 S8        30.04F                  
COLUMBIA OWENS CLOUDY    75  55  49 S6        30.06S                  
ORANGEBURG     CLOUDY    72  62  71 S6        30.09R                  
NEWBERRY       CLOUDY    73  59  60 S5        30.07S                  
AIKEN          CLOUDY    73  59  60 S7        30.09S                  
BARNWELL       CLOUDY    70  61  73 CALM      30.10R                  
MANNING        CLOUDY    72  63  73 S8        30.09R                  
CAMDEN         CLOUDY    75  55  50 S13       30.02F                  
LANCASTER      CLOUDY    72  61  68 CALM      30.04R                  
WINNSBORO      CLOUDY    73  59  60 S12G21    30.03F                  


...EASTERN AND COASTAL SOUTH CAROLINA...
  
CITY           SKY/WX    TMP DP  RH WIND       PRES   REMARKS
MYRTLE BEACH   CLOUDY    70  67  90 S10       30.11R                  
N MYRTLE BCH   CLOUDY    70  63  78 SW14      30.09R                  
CONWAY         CLOUDY    70  63  78 S8        30.09S                  
MARION         CLOUDY    72  59  64 S12       30.05F                  
HARTSVILLE     CLOUDY    73  57  56 S9G15     30.02S                  
FLORENCE       CLOUDY    74  60  61 S12       30.05F                  
DARLINGTON     CLOUDY    75  59  57 S10       30.04S                  
CHARLESTON APT CLOUDY    70  63  78 S9        30.12R                  
MOUNT PLEASANT CLOUDY    70  68  94 S5        30.12R                  
WALTERBORO     CLOUDY    70  63  78 S8        30.12R                  
BEAUFORT       CLOUDY    72  65  78 S7        30.12R                  
HILTON HEAD    CLOUDY    70  66  88 VRB5      30.13R                  


...EASTERN GEORGIA...
  
CITY           SKY/WX    TMP DP  RH WIND       PRES   REMARKS
AUGUSTA BUSH F CLOUDY    70  64  81 S5        30.06S                  
AUGUSTA DANIEL CLOUDY    76  58  53 S6        30.08S                  
THOMSON        CLOUDY    72  67  82 S3        30.08S                  
WASHINGTON     CLOUDY    74  63  69 S14       30.04F                  
CLAXTON        CLOUDY    73  66  78 SE3       30.09S                  
STATESBORO     CLOUDY    71  61  71 SE5       30.09S                  
SAVANNAH       CLOUDY    72  63  73 S6        30.12R                  


...SOUTHERN NORTH CAROLINA...
  
CITY           SKY/WX    TMP DP  RH WIND       PRES   REMARKS
CHARLOTTE      CLOUDY    73  60  63 S6        30.03R                  
MONROE         CLOUDY    71  60  68 SW5       30.03R                  
WADESBORO      CLOUDY    73  54  52 S8        30.01F                  
ROCKINGHAM     CLOUDY    74  55  51 S8        30.03S                  
RUTHERFORDTON  CLOUDY    70  48  46 SW6       30.05R                  
ASHEVILLE      CLOUDY    65  47  52 S8        30.07S                  

$$
  

SKY/WX - Weather  TMP - Temperature  DP - Dew Point  RH - Humidity
WIND - Wind Direction/Speed PRES - Barometric Pressure VSB - Visibility
WCI - Wind Chill Index E13G22 Wind - East Wind 13 mph/Gusts of 22 mph

Trending Headlines

Trending Entertainment Headlines

Lake City Radar Loop

Use the map search tool if you want to place a location marker on the radar map...

Lake City Quick Facts

National Two Day Weather Forecast


E-mail the Lake City Weather Forecast

Voice your opinion or tell us about page issues...